Weather History for Sparta, WI

Change the Weather History Date:

Monday, November 12, 2012

  Actual Average Record
Temperature  
Mean Temperature 26 °F -  
Max Temperature 28 °F 42 °F 63 °F (1964)
Min Temperature 23 °F 25 °F 10 °F (1950)
Degree Days  
Heating Degree Days 40    
Moisture  
Dew Point 17 °F    
Average Humidity 69    
Maximum Humidity 86    
Minimum Humidity 64    
Precipitation  
Precipitation 0.00 in - - ()
Sea Level Pressure  
Sea Level Pressure 30.08 in    
Wind  
Wind Speed 10 mph (West)    
Max Wind Speed 15 mph    
Max Gust Speed 23 mph    
Visibility 10 miles    
Events Snow    
Averages and records for this station are not official NWS values.
T = Trace of Precipitation, MM = Missing Value Source: NWS Daily Summary

Daily Weather History Graph

Daily Weather History Graph

Search for Another Location

Airport:

Trip Planner

Search our weather history database for the weather conditions in past years. The results will help you decide how hot, cold, wet, or windy it might be!

Date:

Astronomy

Nov. 12, 2012 Rise Set
Actual Time 6:54 AM CST 4:39 PM CST
Civil Twilight 6:23 AM CST 5:10 PM CST
Nautical Twilight 5:48 AM CST 5:44 PM CST
Astronomical Twilight 5:14 AM CST 6:18 PM CST
Moon 5:18 AM CST (11/12) 3:45 PM CST (11/12)
Length of Visible Light 10h 46m
Length of Day
9h 44m
Waning Crescent, 2% of the Moon is Illuminated
Nov 12
Waning Crescent
Nov 13
New
Nov 20
First Quarter
Nov 28
Full
Dec 6
Last Quarter

Hourly Weather History & Observations

Time (CST) Temp. Windchill Dew Point Humidity Pressure Visibility Wind Dir Wind Speed Gust Speed Precip Events Conditions
12:15 AM 28.4 °F 19.1 °F 19.4 °F 69% 29.95 in 10.0 mi West 10.4 mph 18.4 mph N/A   Mostly Cloudy
12:35 AM 28.4 °F 18.5 °F 19.4 °F 69% 29.95 in 10.0 mi West 11.5 mph 18.4 mph N/A   Overcast
12:55 AM 28.4 °F 21.2 °F 19.4 °F 69% 29.95 in 10.0 mi West 6.9 mph 16.1 mph N/A   Overcast
1:15 AM 28.4 °F 19.7 °F 19.4 °F 69% 29.95 in 10.0 mi West 9.2 mph - N/A   Overcast
1:35 AM 28.4 °F 19.7 °F 19.4 °F 69% 29.96 in 10.0 mi West 9.2 mph - N/A   Overcast
1:55 AM 26.6 °F 16.8 °F 17.6 °F 69% 29.96 in 10.0 mi West 10.4 mph 20.7 mph N/A   Overcast
2:15 AM 26.6 °F 16.8 °F 17.6 °F 69% 29.97 in 10.0 mi West 10.4 mph 17.3 mph N/A   Overcast
2:35 AM 26.6 °F 18.2 °F 17.6 °F 69% 29.98 in 10.0 mi West 8.1 mph 16.1 mph N/A   Overcast
2:55 AM 26.6 °F 16.8 °F 17.6 °F 69% 29.98 in 10.0 mi West 10.4 mph - N/A   Overcast
3:36 AM 24.8 °F 14.6 °F 15.8 °F 69% 29.99 in 10.0 mi WSW 10.4 mph 19.6 mph N/A   Mostly Cloudy
3:55 AM 24.8 °F 15.3 °F 15.8 °F 69% 29.99 in 10.0 mi WSW 9.2 mph - N/A   Overcast
3:56 AM 24.8 °F 16.1 °F 15.8 °F 69% 29.99 in 10.0 mi WSW 8.1 mph - N/A   Overcast
4:15 AM 24.8 °F 14.6 °F 14.0 °F 64% 29.99 in 10.0 mi West 10.4 mph 18.4 mph N/A   Overcast
4:35 AM 24.8 °F 15.3 °F 14.0 °F 64% 29.99 in 10.0 mi West 9.2 mph 17.3 mph N/A   Overcast
4:55 AM 24.8 °F 16.1 °F 15.8 °F 69% 29.99 in 10.0 mi West 8.1 mph - N/A   Mostly Cloudy
5:15 AM 24.8 °F 16.9 °F 17.6 °F 74% 29.99 in 10.0 mi SW 6.9 mph - N/A Snow Light Snow
5:35 AM 24.8 °F 15.3 °F 14.0 °F 64% 29.99 in 10.0 mi West 9.2 mph 16.1 mph N/A   Mostly Cloudy
5:55 AM 24.8 °F 16.1 °F 15.8 °F 69% 30.00 in 10.0 mi West 8.1 mph - N/A Snow Light Snow
6:15 AM 23.0 °F 13.1 °F 15.8 °F 74% 29.99 in 10.0 mi WSW 9.2 mph - N/A   Mostly Cloudy
6:55 AM 23.0 °F 13.9 °F 14.0 °F 68% 30.00 in 10.0 mi WSW 8.1 mph - N/A   Overcast
7:15 AM 24.8 °F 15.3 °F 15.8 °F 69% 30.01 in 10.0 mi WSW 9.2 mph - N/A   Overcast
7:35 AM 24.8 °F 15.3 °F 15.8 °F 69% 30.01 in 10.0 mi WSW 9.2 mph 16.1 mph N/A   Overcast
7:55 AM 24.8 °F 14.6 °F 15.8 °F 69% 30.01 in 10.0 mi WSW 10.4 mph 16.1 mph N/A   Mostly Cloudy
8:15 AM 24.8 °F 14.0 °F 15.8 °F 69% 30.02 in 10.0 mi WSW 11.5 mph 18.4 mph N/A Snow Light Snow
8:35 AM 24.8 °F 13.4 °F 14.0 °F 64% 30.02 in 10.0 mi WSW 12.7 mph 20.7 mph N/A   Mostly Cloudy
8:55 AM 24.8 °F 13.4 °F 14.0 °F 64% 30.03 in 10.0 mi WSW 12.7 mph 23.0 mph N/A   Scattered Clouds
9:15 AM 24.8 °F 16.1 °F 14.0 °F 64% 30.03 in 10.0 mi WSW 8.1 mph 17.3 mph N/A   Mostly Cloudy
9:35 AM 24.8 °F 14.0 °F 14.0 °F 64% 30.03 in 10.0 mi West 11.5 mph 19.6 mph N/A   Scattered Clouds
9:55 AM 26.6 °F 16.2 °F 15.8 °F 64% 30.03 in 10.0 mi WSW 11.5 mph 16.1 mph N/A Snow Light Snow
10:15 AM 26.6 °F 17.5 °F 15.8 °F 64% 30.03 in 10.0 mi WSW 9.2 mph 18.4 mph N/A Snow Light Snow
10:35 AM 26.6 °F 14.7 °F 15.8 °F 64% 30.03 in 10.0 mi West 15.0 mph 20.7 mph N/A   Scattered Clouds
10:55 AM 26.6 °F 15.7 °F 15.8 °F 64% 30.04 in 10.0 mi WSW 12.7 mph 19.6 mph N/A Snow Light Snow
11:15 AM 26.6 °F 16.8 °F 17.6 °F 69% 30.04 in 5.0 mi West 10.4 mph 18.4 mph N/A Snow Light Snow
11:35 AM 26.6 °F 15.7 °F 17.6 °F 69% 30.03 in 10.0 mi West 12.7 mph 18.4 mph N/A Snow Light Snow
11:55 AM 26.6 °F 16.8 °F 19.4 °F 74% 30.04 in 1.5 mi West 10.4 mph 19.6 mph N/A Snow Light Snow
12:15 PM 26.6 °F 16.2 °F 17.6 °F 69% 30.03 in 5.0 mi WSW 11.5 mph 19.6 mph N/A Snow Light Snow
12:35 PM 26.6 °F 16.2 °F 19.4 °F 74% 30.04 in 5.0 mi West 11.5 mph - N/A Snow Light Snow
12:55 PM 26.6 °F 15.7 °F 19.4 °F 74% 30.03 in 10.0 mi West 12.7 mph 17.3 mph N/A Snow Light Snow
1:15 PM 26.6 °F 19.1 °F 19.4 °F 74% 30.04 in 10.0 mi WSW 6.9 mph 17.3 mph N/A   Scattered Clouds
1:35 PM 24.8 °F 14.0 °F 21.2 °F 86% 30.05 in 0.2 mi West 11.5 mph 19.6 mph N/A Snow Snow
2:15 PM 26.6 °F 17.5 °F 19.4 °F 74% 30.05 in 10.0 mi West 9.2 mph 16.1 mph N/A   Scattered Clouds
2:35 PM 26.6 °F 16.2 °F 19.4 °F 74% 30.06 in 10.0 mi West 11.5 mph 17.3 mph N/A Snow Light Snow
2:55 PM 26.6 °F 16.8 °F 19.4 °F 74% 30.07 in 10.0 mi West 10.4 mph 17.3 mph N/A Snow Light Snow
3:15 PM 28.4 °F 17.0 °F 17.6 °F 64% 30.08 in 10.0 mi WSW 15.0 mph 20.7 mph N/A   Scattered Clouds
3:35 PM 26.6 °F 14.7 °F 17.6 °F 69% 30.10 in 7.0 mi West 15.0 mph 20.7 mph N/A Snow Light Snow
3:55 PM 26.6 °F 15.2 °F 17.6 °F 69% 30.10 in 10.0 mi West 13.8 mph 19.6 mph N/A   Mostly Cloudy
4:15 PM 26.6 °F 16.2 °F 15.8 °F 64% 30.11 in 10.0 mi West 11.5 mph 20.7 mph N/A   Mostly Cloudy
4:35 PM 26.6 °F 16.8 °F 15.8 °F 64% 30.12 in 10.0 mi West 10.4 mph 17.3 mph N/A   Scattered Clouds
4:55 PM 26.6 °F 15.7 °F 17.6 °F 69% 30.13 in 10.0 mi West 12.7 mph 16.1 mph N/A   Mostly Cloudy
5:15 PM 26.6 °F 16.2 °F 17.6 °F 69% 30.14 in 10.0 mi West 11.5 mph 17.3 mph N/A   Mostly Cloudy
5:35 PM 26.6 °F 16.8 °F 15.8 °F 64% 30.15 in 10.0 mi West 10.4 mph 16.1 mph N/A   Mostly Cloudy
5:55 PM 26.6 °F 16.2 °F 17.6 °F 69% 30.17 in 10.0 mi West 11.5 mph - N/A   Mostly Cloudy
6:15 PM 26.6 °F 17.5 °F 17.6 °F 69% 30.17 in 10.0 mi West 9.2 mph - N/A   Overcast
6:35 PM 26.6 °F 18.2 °F 17.6 °F 69% 30.18 in 10.0 mi West 8.1 mph - N/A   Overcast
6:55 PM 26.6 °F 18.2 °F 17.6 °F 69% 30.19 in 10.0 mi West 8.1 mph - N/A   Mostly Cloudy
7:15 PM 26.6 °F 19.1 °F 17.6 °F 69% 30.20 in 10.0 mi West 6.9 mph - N/A   Mostly Cloudy
7:35 PM 26.6 °F 16.8 °F 17.6 °F 69% 30.21 in 10.0 mi West 10.4 mph 16.1 mph N/A   Mostly Cloudy
7:55 PM 26.6 °F 19.1 °F 17.6 °F 69% 30.22 in 10.0 mi West 6.9 mph - N/A   Mostly Cloudy
8:35 PM 26.6 °F 18.2 °F 15.8 °F 64% 30.24 in 10.0 mi West 8.1 mph - N/A   Overcast
8:55 PM 26.6 °F 18.2 °F 17.6 °F 69% 30.25 in 10.0 mi West 8.1 mph - N/A   Overcast
9:15 PM 26.6 °F 17.5 °F 17.6 °F 69% 30.25 in 10.0 mi West 9.2 mph - N/A   Overcast
9:35 PM 26.6 °F 19.1 °F 17.6 °F 69% 30.26 in 10.0 mi West 6.9 mph - N/A   Overcast
9:55 PM 26.6 °F 19.1 °F 17.6 °F 69% 30.27 in 10.0 mi West 6.9 mph - N/A   Overcast
10:15 PM 26.6 °F 20.0 °F 17.6 °F 69% 30.27 in 10.0 mi West 5.8 mph - N/A   Overcast
10:35 PM 26.6 °F 17.5 °F 17.6 °F 69% 30.27 in 10.0 mi West 9.2 mph - N/A   Overcast
10:55 PM 26.6 °F 18.2 °F 15.8 °F 64% 30.28 in 10.0 mi West 8.1 mph 16.1 mph N/A   Scattered Clouds
11:15 PM 24.8 °F 20.5 °F 17.6 °F 74% 30.29 in 10.0 mi West 3.5 mph - N/A   Clear
11:35 PM 24.8 °F 17.9 °F 17.6 °F 74% 30.30 in 10.0 mi West 5.8 mph - N/A   Clear
11:55 PM 23.0 °F 18.4 °F 17.6 °F 80% 30.30 in 10.0 mi West 3.5 mph - N/A   Clear